Flag for Australia Weather past 2 weeks in Tamworth, New South Wales, Australia

Now
48 °F

Overcast.


Feels Like: 45 °F
Forecast: 30 / 52 °F
Wind: 7 mph from West

Location: Tamworth Airport

Current Time: Aug 4, 2015 at 6:13:36 PM

Latest Report: Aug 4, 2015 at 6:00 PM


Visibility: N/A

Pressure: 30.12 "Hg

Humidity: 58%

Dew point: 34 °F

Location of TamworthLocation

Historic Weather in Tamworth — Graph

°F

Tamworth temperature yesterday

Maximum temperature yesterday: 61 °F (at 1:30 PM)
Minimum temperature yesterday: 41 °F (at 9:30 PM)
Average temperature yesterday: 50 °F

Past Weeks' High & Low Weather Summary

 TemperatureHumidityPressure
High73 °F (Aug 2, 12:30 PM)94% (Jul 23, 3:30 AM)30.54 "Hg (Jul 23, 3:30 AM)
Low27 °F (Jul 28, 5:00 AM)29% (Jul 28, 3:30 PM)29.98 "Hg (Aug 2, 3:00 PM)
Average50 °F72%30.24 "Hg
* Reported Jul 20 5:00 PM — Aug 4 5:00 PM, Tamworth, Weather by CustomWeather, © 2015

Note: Actual official high and low records may vary slightly from our data, if they occured in-between our weather recording intervals... More about our weather records

Advertising

Tamworth weather history for previous 24 hours

 ConditionsComfort  
Time TempWeatherWind HumidityBarometerVisibility
5:00 PM
Tue, Aug 4
50 °FOvercast.5 mph54%30.09 "HgN/A
4:30 PM50 °FOvercast.3 mph54%30.09 "HgN/A
4:00 PM50 °FOvercast.5 mph54%30.09 "HgN/A
3:30 PM50 °FOvercast.8 mph50%30.09 "HgN/A
3:00 PM52 °FOvercast.8 mph54%30.09 "HgN/A
2:30 PM52 °FOvercast.9 mph54%30.12 "HgN/A
2:00 PM52 °FOvercast.9 mph54%30.12 "HgN/A
1:30 PM52 °FOvercast.8 mph54%30.12 "HgN/A
1:00 PM52 °FCloudy.8 mph54%30.12 "HgN/A
12:30 PM50 °FOvercast.8 mph54%30.12 "HgN/A
12:00 PM52 °FBroken clouds.7 mph50%30.15 "HgN/A
11:30 AM50 °FOvercast.3 mph58%30.18 "HgN/A
11:00 AM50 °FOvercast.5 mph54%30.18 "HgN/A
10:30 AM50 °FPartly sunny.5 mph58%30.18 "HgN/A
10:00 AM48 °FSunny.6 mph62%30.18 "HgN/A
9:30 AM48 °FScattered clouds.3 mph66%30.18 "HgN/A
9:00 AM45 °FSunny.No wind76%30.18 "HgN/A
8:30 AM41 °FSunny.5 mph81%30.18 "HgN/A
8:00 AM39 °FSunny.5 mph87%30.18 "HgN/A
7:30 AM34 °FSunny.No wind93%30.18 "HgN/A
7:00 AM30 °FSunny.3 mph93%30.18 "HgN/A
6:30 AM32 °FSunny.5 mph93%30.18 "HgN/A
6:00 AM32 °FSunny.6 mph93%30.15 "HgN/A
5:30 AM32 °FClear.3 mph93%30.15 "HgN/A
5:00 AM34 °FPassing clouds.3 mph87%30.15 "HgN/A
4:30 AM34 °FPassing clouds.5 mph93%30.15 "HgN/A
4:00 AM36 °FOvercast.No wind87%30.15 "HgN/A
3:30 AM34 °FPassing clouds.No wind93%30.15 "HgN/A
3:00 AM36 °FClear.No wind87%30.15 "HgN/A
2:30 AM36 °FClear.No wind87%30.15 "HgN/A
2:00 AM37 °FClear.No wind87%30.15 "HgN/A
1:30 AM36 °FClear.No wind81%30.15 "HgN/A
1:00 AM37 °FClear.2 mph87%30.18 "HgN/A
12:30 AM37 °FClear.3 mph81%30.18 "HgN/A
12:00 AM37 °FClear.3 mph87%30.18 "HgN/A
11:30 PM
Mon, Aug 3
41 °FClear.5 mph81%30.18 "HgN/A
11:00 PM41 °FClear.5 mph76%30.18 "HgN/A
10:30 PM41 °FClear.No wind76%30.18 "HgN/A
10:00 PM43 °FPassing clouds.5 mph76%30.18 "HgN/A
9:30 PM41 °FPassing clouds.5 mph76%30.18 "HgN/A
9:00 PM45 °FPassing clouds.5 mph71%30.18 "HgN/A
8:30 PM43 °FPassing clouds.1 mph71%30.18 "HgN/A
8:00 PM46 °FClear.12 mph66%30.15 "HgN/A
7:30 PM48 °FClear.8 mph62%30.15 "HgN/A
7:00 PM48 °FClear.12 mph62%30.15 "HgN/A
6:30 PM46 °FClear.10 mph66%30.12 "HgN/A
6:00 PM48 °FClear.8 mph62%30.12 "HgN/A
Weather by CustomWeather, © 2015

See weather overviewHow to use our weather pages